Location: *
(1.3500°S, 147.5000°W)
Time: 14:39:16
(UTC+00:00)

Cosmos 1709 Rocket - Pass Details

Date: 07 April 2020
Orbit: 948 x 1002 km, 82.9° (Epoch: 26 May)

Event Time Altitude Azimuth Distance (km) Brightness Sun altitude
Rises 04:50:09 0° 2° (N) 3,604 7.0 -14.6°
Reaches altitude 10° 04:52:39 10° 5° (N) 2,660 6.3 -15.2°
Maximum altitude 04:58:41 68° 87° (E) 1,013 3.8 -16.7°
Drops below altitude 10° 05:04:44 10° 169° (S) 2,677 6.1 -18.2°
Sets 05:07:15 0° 172° (S) 3,629 6.8 -18.8°
